Regional Weather Roundup
Issued by NWS

Home | Current Version | Previous Version | Graphics & Text | Print | Product List | Glossary On
Versions: 1 2 3 4 5 6 7 8 9 10 11 12 13 14 15 16 17 18 19 20 21 22 23 24 25 26 27 28 29 30 31 32 33 34 35 36 37 38 39 40 41 42 43 44 45 46 47 48 49 50
000
ASUS43 KDMX 230107
RWRIA

WEATHER ROUNDUP FOR IOWA
NATIONAL WEATHER SERVICE DES MOINES IA
800 PM CDT TUE JUL 22 2014

NOTE: "FAIR" INDICATES FEW OR NO CLOUDS BELOW 12,000 FEET WITH NO
SIGNIFICANT WEATHER AND/OR OBSTRUCTIONS TO VISIBILITY.

* - THESE STATIONS ARE NOT NWS STATIONS...THUS NOT UNDER NWS
QUALITY CONTROL.  THEY ALSO DO NOT REPORT WEATHER SUCH
AS PRECIPITATION OR FOG.

IAZ001>003-012>014-020>022-031>034-043>046-230200-
   NORTHWEST IOWA

CITY           SKY/WX    TMP DP  RH WIND       PRES   REMARKS
CARROLL *      CLEAR     79  68  69 N8        30.11R HX  81
CHEROKEE *     CLEAR     79  63  57 N7        30.14R HX  80
DENISON *      CLEAR     79  68  69 N8        30.11S HX  81
LE MARS *      CLEAR     79  64  61 N8        30.15R HX  81
ORANGE CITY *  CLEAR     81  59  47 N9        30.16S HX  81
SHELDON *      CLEAR     75  63  64 N8        30.15S
SIOUX CITY     CLEAR     82  64  54 N10       30.14R HX  83
SPENCER        PTCLDY    78  60  53 N9        30.15R
STORM LAKE *   CLEAR     77  64  65 N9G15     30.15R
$$

IAZ055>058-069>071-079>083-090>094-230200-
   SOUTHWEST IOWA

CITY           SKY/WX    TMP DP  RH WIND       PRES   REMARKS
ATLANTIC *     CLEAR     81  72  74 N10       30.09R HX  84
AUDUBON *      CLEAR     82  73  74 N12       30.12R HX  88
CLARINDA *     CLEAR     82  73  74 NE6       30.06S HX  88
COUNCIL BLFS * CLEAR     81  72  74 N13G18    30.10S HX  84
CRESTON *      CLEAR     81  72  74 N13G20    30.07S HX  84
HARLAN  *      CLEAR     79  70  73 N7G13     30.15R HX  81
LAMONI         PTCLDY    83  74  74 N9        30.04S HX  89
RED OAK *      PTCLDY    82  73  74 N13       30.09R HX  88
SHENANDOAH *   CLEAR     84  75  74 N8        30.07S HX  92
$$

IAZ047>049-059>061-072>074-084-230200-
   CENTRAL IOWA

CITY           SKY/WX    TMP DP  RH WIND       PRES   REMARKS
AMES           MOCLDY    80  68  66 N10       30.06R HX  83
ANKENY *       CLEAR     82  70  65 N10G17    30.05R HX  86
CHARITON *     PTCLDY    82  73  74 N6        30.04R HX  88
DES MOINES     MOCLDY    84  69  60 N14       30.05R HX  88
GRINNELL*      PTCLDY    79  72  78 N7        30.04S HX  82
KNOXVILLE *    PTCLDY    82  72  69 N9        30.02R HX  87
MARSHALLTOWN   CLEAR     80  69  69 N9        30.04R HX  83
PELLA *        MOCLDY    82  72  69 N5        30.04R HX  87
PERRY *          N/A     81  68  65 N7        30.07F HX  83
$$

IAZ004>006-015-016-023>025-035-036-230200-
   NORTH CENTRAL IOWA

CITY           SKY/WX    TMP DP  RH WIND       PRES   REMARKS
ALGONA *       CLEAR     79  63  57 N9G15     30.12R HX  80
CLARION *      CLEAR     79  64  61 N10       30.10R HX  81
ESTHERVILLE    CLEAR     77  57  50 N12       30.14R
FORT DODGE *   PTCLDY    79  64  61 N6        30.11R HX  81
MASON CITY     PTCLDY    79  64  60 NW12      30.10R HX  81
FOREST CITY *  CLEAR     79  61  53 N13       30.10R HX  80
IOWA FALLS *     N/A     79  66  65 N13       30.08S HX  81
$$

IAZ007>011-017>019-026>030-037>042-050>054-066-230200-
   NORTHEAST IOWA

CITY           SKY/WX    TMP DP  RH WIND       PRES   REMARKS
CEDAR RAPIDS   PTCLDY    83  72  69 N10       30.00R HX  88
CHARLES CITY * CLEAR     79  64  61 NW10      30.08R HX  81
DECORAH *      CLEAR     79  66  65 N10G17    30.05R HX  81
DUBUQUE        PTCLDY    82  72  71 N13       30.01R HX  87
MONTICELLO *   CLEAR     82  72  69 NW10      30.00R HX  87
OELWEIN *      CLEAR     81  70  69 NW8       30.05S HX  84
WATERLOO       CLEAR     81  67  62 N13       30.03R HX  83
$$

IAZ064-065-067-068-078-230200-
   EAST CENTRAL IOWA

CITY           SKY/WX    TMP DP  RH WIND       PRES   REMARKS
DAVENPORT      PTCLDY    84  78  82 W7        29.98S HAZE    HX  95
IOWA CITY      PTCLDY    86  75  69 NW10      30.00R HX  95
MT. PLEASANT * PTCLDY    84  77  79 CALM      30.01R HAZE    HX  94
MUSCATINE *    PTCLDY    86  81  84 W5        29.98S HX 102
QUAD CITIES    MOCLDY    84  78  82 SW6       29.97R HX  95
$$

IAZ062-063-075>077-085>089-095>099-230200-
   SOUTHEAST IOWA

CITY           SKY/WX    TMP DP  RH WIND       PRES   REMARKS
BURLINGTON     MOCLDY    80  77  90 SW6       30.00S FOG     HX  87
FAIRFIELD *    MOCLDY    82  79  89 CALM      30.01S HX  93
FORT MADISON * PTCLDY    82  79  89 S5        30.02R FOG     HX  93
KEOKUK *       MOCLDY    81  77  89 CALM      30.00R HX  88
OSKALOOSA *      N/A     82  73  74 N6        30.02S HX  88
CENTERVILLE *  PTCLDY    84  77  79 N7        30.05R HX  94
OTTUMWA        MOCLDY    83  73  72 N7        30.01S HX  89
WASHINGTON *   CLOUDY    84  79  84 N7        30.00S HX  96
$$

ABBREVIATIONS USED IN REMARKS
   TC - TEMPERATURES IN CELSIUS
  WCI - WIND CHILL INDEX
   HX - HEAT INDEX
  VSB - VISIBILITY
$$




USA.gov is the U.S. government's official web portal to all federal, state and local government web resources and services.